Date String (YYYY-MM-DD hh:mm:ss) UTC,Instrument flags,absolute air pressure of the measurement (hPa),sample flow rate (lpm),inlet stack bypass flow (lpm),air temperature of the measurement (°C),ambient temperature measured by the external sensor (°C),aerosol sample conditioner tube jacket temperature (°C),OPC LED temperature (°C),internal box temperature (°C),relative humidity of the measurement (%),span deviation,mass concentration of particles derived from Lorenz-Mie calculation of OPC scattering (μg/m³),mass concentration of particles derived from Lorenz-Mie calculation of OPC scattering (μg/m³),mass concentration of particles derived from Lorenz-Mie calculation of OPC scattering (μg/m³)
DateTimeUTC,F1_M11,P_M11,Q1_M11,Q2_M11,T1_M11,T2_M11,T3_M11,T4_M11,T5_M11,U1_M11,ZSPAN_M11,X0_M11,X2_M11,X1_M11
2023-09-19 06:00:00,SystemResetWarning,0827.8,5.00,000.00,028.1,026.5,000.0,036.5,029.6,17.3,0000.0,0002.42,0001.60,0001.22
2023-09-19 06:01:00,SystemResetWarning,0827.8,5.01,000.00,028.1,026.6,000.0,036.5,029.7,17.2,0000.0,0002.44,0001.62,0001.21
2023-09-19 06:02:00,SystemResetWarning,0827.8,5.00,000.00,028.1,026.7,000.0,036.5,029.7,17.1,0000.0,0002.49,0001.64,0001.19
2023-09-19 06:03:00,SystemResetWarning,0827.8,5.00,000.00,028.1,026.7,000.0,036.5,029.7,17.2,0000.0,0002.53,0001.66,0001.18
2023-09-19 06:04:00,SystemResetWarning,0827.7,5.00,000.00,028.1,026.8,000.0,036.5,029.7,17.2,0000.0,0002.41,0001.64,0001.17
2023-09-19 06:05:00,SystemResetWarning,0827.8,5.00,000.00,028.1,026.8,000.0,036.5,029.8,17.3,0000.0,0002.33,0001.61,0001.16
2023-09-19 06:06:00,SystemResetWarning,0827.8,5.00,000.00,028.2,026.8,000.0,036.5,029.8,17.1,0000.0,0002.23,0001.57,0001.16
2023-09-19 06:07:00,SystemResetWarning,0827.8,5.00,000.00,028.2,026.9,000.0,036.5,029.8,17.0,0000.0,0002.19,0001.55,0001.16
2023-09-19 06:08:00,SystemResetWarning,0827.8,5.00,000.00,028.2,026.9,000.0,036.5,029.8,17.1,0000.0,0002.15,0001.52,0001.15
2023-09-19 06:09:00,SystemResetWarning,0827.8,5.00,000.00,028.2,026.9,000.0,036.5,029.9,17.2,0000.0,0002.10,0001.47,0001.12
2023-09-19 06:10:00,SystemResetWarning,0827.7,4.99,000.00,028.2,027.0,000.0,036.5,029.9,17.1,0000.0,0001.90,0001.39,0001.11
2023-09-19 06:11:00,SystemResetWarning,0827.8,5.01,000.00,028.3,027.0,000.0,036.5,029.9,17.1,0000.0,0001.85,0001.37,0001.10
2023-09-19 06:12:00,SystemResetWarning,0827.8,5.01,000.00,028.3,027.0,000.0,036.6,029.9,17.0,0000.0,0001.66,0001.29,0001.08
2023-09-19 06:13:00,SystemResetWarning,0827.8,5.00,000.00,028.3,027.0,000.0,036.6,029.9,17.1,0000.0,0001.52,0001.21,0001.05
2023-09-19 06:14:00,SystemResetWarning,0827.9,4.99,000.00,028.3,027.0,000.0,036.6,030.0,17.0,0000.0,0001.44,0001.16,0001.03
2023-09-19 06:15:00,SystemResetWarning,0827.8,4.99,000.00,028.3,027.1,000.0,036.6,030.0,17.0,0000.0,0001.40,0001.14,0001.02
2023-09-19 06:16:00,SystemResetWarning,0827.9,5.00,000.00,028.4,027.1,000.0,036.6,030.0,17.1,0000.0,0001.39,0001.13,0001.01
2023-09-19 06:17:00,SystemResetWarning,0827.8,5.01,000.00,028.4,027.1,000.0,036.6,030.0,17.1,0000.0,0001.39,0001.12,0000.99
2023-09-19 06:18:00,SystemResetWarning,0827.7,5.00,000.00,028.4,027.1,000.0,036.7,030.0,17.1,0000.0,0001.39,0001.10,0000.98
2023-09-19 06:19:00,SystemResetWarning,0827.7,4.99,000.00,028.4,027.1,000.0,036.7,030.1,17.1,0000.0,0001.39,0001.10,0000.97
2023-09-19 06:20:00,SystemResetWarning,0827.8,4.99,000.00,028.4,027.2,000.0,036.7,030.1,16.9,0000.0,0001.49,0001.10,0000.96
2023-09-19 06:21:00,SystemResetWarning,0827.8,5.00,000.00,028.4,027.2,000.0,036.7,030.1,17.0,0000.0,0001.65,0001.13,0000.95
2023-09-19 06:22:00,SystemResetWarning,0827.8,5.00,000.00,028.5,027.2,000.0,036.7,030.1,16.9,0000.0,0001.60,0001.10,0000.95
2023-09-19 06:23:00,SystemResetWarning,0827.8,5.00,000.00,028.5,027.2,000.0,036.7,030.1,16.9,0000.0,0001.64,0001.11,0000.94
2023-09-19 06:24:00,SystemResetWarning,0827.8,5.00,000.00,028.5,027.2,000.0,036.8,030.1,16.9,0000.0,0001.68,0001.12,0000.94
2023-09-19 06:25:00,SystemResetWarning,0827.9,5.00,000.00,028.5,027.2,000.0,036.8,030.1,17.0,0000.0,0001.65,0001.11,0000.94
2023-09-19 06:26:00,SystemResetWarning,0827.7,5.00,000.00,028.5,027.2,000.0,036.8,030.1,16.9,0000.0,0001.80,0001.12,0000.93
2023-09-19 06:27:00,SystemResetWarning,0827.8,5.01,000.00,028.5,027.2,000.0,036.8,030.1,16.9,0000.0,0001.92,0001.15,0000.93
2023-09-19 06:28:00,SystemResetWarning,0827.8,5.00,000.00,028.5,027.2,000.0,036.8,030.2,16.8,0000.0,0001.97,0001.17,0000.93
2023-09-19 06:29:00,SystemResetWarning,0827.8,5.00,000.00,028.5,027.2,000.0,036.8,030.1,16.9,0000.0,0001.97,0001.18,0000.94
2023-09-19 06:30:00,SystemResetWarning,0827.8,5.00,000.00,028.6,027.2,000.0,036.8,030.2,17.0,0000.0,0001.92,0001.16,0000.94
2023-09-19 06:31:00,SystemResetWarning,0827.8,4.98,000.00,028.6,026.6,000.0,036.8,030.0,16.9,0000.0,0001.95,0001.16,0000.94
2023-09-19 06:32:00,SystemResetWarning,0827.8,5.00,000.00,028.4,024.9,000.0,036.8,029.5,17.1,0000.0,0001.83,0001.14,0000.94
2023-09-19 06:33:00,SystemResetWarning,0827.8,5.02,000.00,028.3,024.4,000.0,036.7,029.5,17.1,0000.0,0001.81,0001.15,0000.94
2023-09-19 06:34:00,SystemResetWarning,0827.8,5.00,000.00,028.2,024.6,000.0,036.7,029.4,17.2,0000.0,0001.95,0001.18,0000.95
2023-09-19 06:35:00,SystemResetWarning,0827.8,5.00,000.00,028.1,024.9,000.0,036.7,029.4,17.3,0000.0,0001.95,0001.18,0000.96
2023-09-19 06:36:00,SystemResetWarning,0827.8,5.00,000.00,028.1,025.2,000.0,036.6,029.5,17.3,0000.0,0001.98,0001.19,0000.97
2023-09-19 06:37:00,SystemResetWarning,0827.8,5.00,000.00,028.1,025.4,000.0,036.6,029.5,17.2,0000.0,0001.92,0001.20,0000.98
2023-09-19 06:38:00,SystemResetWarning,0827.8,5.00,000.00,028.1,025.7,000.0,036.6,029.5,17.2,0000.0,0001.73,0001.16,0000.98
2023-09-19 06:39:00,SystemResetWarning,0827.7,5.00,000.00,028.1,025.9,000.0,036.6,029.6,17.3,0000.0,0001.73,0001.15,0000.98
2023-09-19 06:40:00,SystemResetWarning,0827.8,5.00,000.00,028.1,026.0,000.0,036.5,029.6,17.3,0000.0,0001.70,0001.16,0000.99
2023-09-19 06:41:00,SystemResetWarning,0827.7,5.00,000.00,028.1,026.2,000.0,036.5,029.6,17.3,0000.0,0001.74,0001.18,0000.99
2023-09-19 06:42:00,SystemResetWarning,0827.8,5.01,000.00,028.1,026.3,000.0,036.5,029.7,17.3,0000.0,0001.63,0001.17,0000.99
2023-09-19 06:43:00,SystemResetWarning,0827.7,5.00,000.00,028.1,026.4,000.0,036.5,029.7,17.2,0000.0,0001.66,0001.19,0001.00
2023-09-19 06:44:00,SystemResetWarning,0827.7,5.00,000.00,028.1,026.5,000.0,036.5,029.7,17.1,0000.0,0001.80,0001.23,0000.99
2023-09-19 06:45:00,SystemResetWarning,0827.8,4.99,000.00,028.1,026.5,000.0,036.5,029.7,17.1,0000.0,0002.26,0001.22,0000.99
2023-09-19 06:46:00,SystemResetWarning,0827.8,4.99,000.00,028.1,026.6,000.0,036.5,029.7,17.2,0000.0,0002.41,0001.24,0000.99
2023-09-19 06:47:00,SystemResetWarning,0827.8,5.00,000.00,028.1,026.6,000.0,036.5,029.7,17.2,0000.0,0002.57,0001.27,0001.00
2023-09-19 06:48:00,SystemResetWarning,0827.7,5.00,000.00,028.2,026.7,000.0,036.5,029.7,17.3,0000.0,0002.61,0001.28,0000.99
2023-09-19 06:49:00,SystemResetWarning,0827.7,5.01,000.00,028.2,026.7,000.0,036.5,029.8,17.2,0000.0,0002.60,0001.28,0001.00
2023-09-19 06:50:00,SystemResetWarning,0827.7,5.00,000.00,028.2,026.8,000.0,036.5,029.8,17.1,0000.0,0002.59,0001.28,0001.00
2023-09-19 06:51:00,SystemResetWarning,0827.7,5.01,000.00,028.2,026.8,000.0,036.5,029.8,17.0,0000.0,0002.56,0001.27,0001.00
2023-09-19 06:52:00,SystemResetWarning,0827.7,5.00,000.00,028.2,026.8,000.0,036.5,029.9,16.9,0000.0,0002.65,0001.28,0001.00
2023-09-19 06:53:00,SystemResetWarning,0827.7,5.00,000.00,028.2,026.8,000.0,036.5,029.9,16.9,0000.0,0002.67,0001.28,0001.00
2023-09-19 06:54:00,SystemResetWarning,0827.7,4.99,000.00,028.2,026.8,000.0,036.5,029.9,17.0,0000.0,0002.62,0001.27,0001.00
2023-09-19 06:55:00,SystemResetWarning,0827.7,5.01,000.00,028.2,026.8,000.0,036.5,029.9,17.0,0000.0,0002.51,0001.23,0001.01
2023-09-19 06:56:00,SystemResetWarning,0827.7,5.02,000.00,028.3,026.9,000.0,036.5,029.9,17.0,0000.0,0002.16,0001.21,0001.01
2023-09-19 06:57:00,SystemResetWarning,0827.7,4.99,000.00,028.3,026.9,000.0,036.6,029.9,17.0,0000.0,0001.71,0001.18,0001.01
2023-09-19 06:58:00,SystemResetWarning,0827.7,4.99,000.00,028.3,026.9,000.0,036.6,030.0,16.9,0000.0,0001.62,0001.17,0001.01
2023-09-19 06:59:00,SystemResetWarning,0827.7,5.01,000.00,028.3,026.9,000.0,036.6,030.0,16.9,0000.0,0001.60,0001.17,0001.01
